Regional Weather Roundup
Issued by NWS Glasgow, MT

Home | Current Version | Previous Version | Text Only | Print | Product List | Glossary On
Versions: 1 2 3 4 5 6 7 8 9 10 11 12 13 14 15 16 17 18 19 20 21 22 23 24 25 26 27 28 29 30 31 32 33 34 35 36 37 38 39 40 41 42 43 44 45 46 47 48 49 50
000
ASUS45 KGGW 252115
RWRGGW
HOURLY REGIONAL WEATHER ROUNDUP FOR NORTHEAST MONTANA
NATIONAL WEATHER SERVICE GLASGOW MONTANA
300 PM MDT THU AUG 25 2016

NOTE: "FAIR" INDICATES FEW OR NO CLOUDS BELOW 12,000 FEET WITH NO
SIGNIFICANT WEATHER AND/OR OBSTRUCTIONS TO VISISBILITY.

NORTHEAST MONTANA


CITY           SKY/WX    TMP DP  RH WIND       PRES   REMARKS
GLASGOW        CLOUDY    72  37  28 SW7G20    30.14F
PLENTYWOOD       N/A     71  35  26 NW9G18      N/A
WOLF POINT     PTSUNNY   75  38  26 W10G18    30.14F
JORDAN           N/A     71  37  28 VRB3      30.17F
WINNETT          N/A     71  35  26 SE3         N/A
SIDNEY         PTSUNNY   72  39  30 W8        30.13F
GLENDIVE       CLOUDY    70  39  32 W9        30.18F
MALTA            N/A     73  37  27 W6          N/A
SCOBEY           N/A     71  37  28 W8        30.12F

FORT PECK REPORTS


CITY           SKY/WX    TMP DP  RH WIND       PRES   REMARKS
FORT PECK        N/A     72  47  40 S8          N/A
THE PINES        N/A     70  40  33 S6          N/A

SOUTHEAST MONTANA


CITY           SKY/WX    TMP DP  RH WIND       PRES   REMARKS
BILLINGS       MOSUNNY   69  35  28 SE3       30.20F
MILES CITY     PTSUNNY   69  40  34 CALM      30.20F
BAKER          CLOUDY    66  39  37 W9        30.21F
LIVINGSTON     SUNNY     68  35  29 NE9       30.19F

CENTRAL MONTANA


CITY           SKY/WX    TMP DP  RH WIND       PRES   REMARKS
HAVRE          CLOUDY    70  38  31 VRB5      30.16F
LEWISTOWN      SUNNY     67  32  27 NE6       30.21F
GREAT FALLS    CLOUDY    67  35  30 CALM      30.20F
CUT BANK       PTSUNNY   69  34  27 NW8       30.20F
HELENA         MOSUNNY   70  34  26 N6        30.20F
BUTTE          CLOUDY    65  27  23 E5        30.22F
BOZEMAN        SUNNY     68  28  22 CALM      30.19F

WESTERN MONTANA


CITY           SKY/WX    TMP DP  RH WIND       PRES   REMARKS
MISSOULA       FAIR      72  33  24 S5        30.16F
KALISPELL      NOT AVBL

NORTH DAKOTA


CITY           SKY/WX    TMP DP  RH WIND       PRES   REMARKS
WILLISTON      MOSUNNY   77  36  22 W10G24    30.12F
DICKINSON      PTSUNNY   69  32  25 NW8       30.16F
MINOT          SUNNY     75  41  29 W15       30.08F
BISMARCK       CLOUDY    66  47  50 NW12      30.16S

SOUTHERN SASKATCHEWAN


CITY           SKY/WX    TMP DP  RH WIND       PRES   REMARKS
REGINA         MOSUNNY   72  39  30 W8        30.07F
MOOSE JAW      PTSUNNY   68  45  42 NW9       30.09F
ESTEVAN        MOSUNNY   72  39  30 NW10      30.09F
SWIFT CURRENT  MOSUNNY   64  48  55 W14G24    30.12F




USA.gov is the U.S. government's official web portal to all federal, state and local government web resources and services.